Change the Weather History Date:

Monday, October 29, 2012

  Actual Average Record
Temperature  
Mean Temperature 44 °F -  
Max Temperature 54 °F 55 °F 80 °F (1950)
Min Temperature 33 °F 33 °F 15 °F (1952)
Degree Days  
Heating Degree Days 22    
Moisture  
Dew Point 29 °F    
Average Humidity 58    
Maximum Humidity 78    
Minimum Humidity 33    
Precipitation  
Precipitation 0.00 in - - ()
Sea Level Pressure  
Sea Level Pressure 30.24 in    
Wind  
Wind Speed 8 mph (SE)    
Max Wind Speed 18 mph    
Max Gust Speed 23 mph    
Visibility 10 miles    
Events      
Averages and records for this station are not official NWS values.
T = Trace of Precipitation, MM = Missing Value Source: NWS Daily Summary

Daily Weather History Graph

Daily Weather History Graph

Search for Another Location

Airport or City:

Trip Planner

Search our weather history database for the weather conditions in past years. The results will help you decide how hot, cold, wet, or windy it might be!

Date:

Astronomy

Oct. 29, 2012 Rise Set
Actual Time 7:45 AM CDT 6:14 PM CDT
Civil Twilight 7:17 AM CDT 6:42 PM CDT
Nautical Twilight 6:44 AM CDT 7:15 PM CDT
Astronomical Twilight 6:11 AM CDT 7:47 PM CDT
Moon 6:05 PM CDT (10/29) 7:37 AM CDT (10/29)
Length of Visible Light 11h 25m
Length of Day
10h 28m
Full, 100% of the Moon is Illuminated
Oct 29
Full
Oct 29
Full
Nov 6
Last Quarter
Nov 13
New
Nov 20
First Quarter

Hourly Weather History & Observations

Time (CDT) Temp. Windchill Dew Point Humidity Pressure Visibility Wind Dir Wind Speed Gust Speed Precip Events Conditions
12:15 AM 37.6 °F 34.0 °F 25.7 °F 62% 30.29 in 10.0 mi SE 4.6 mph - N/A   Overcast
12:35 AM 37.6 °F 34.0 °F 25.9 °F 63% 30.29 in 10.0 mi SE 4.6 mph - N/A   Scattered Clouds
12:55 AM 35.6 °F 31.7 °F 26.2 °F 69% 30.29 in 10.0 mi SE 4.6 mph - N/A   Clear
1:15 AM 36.0 °F 32.1 °F 25.5 °F 66% 30.29 in 10.0 mi SSE 4.6 mph - N/A   Clear
1:35 AM 35.6 °F 30.7 °F 25.7 °F 67% 30.29 in 10.0 mi SE 5.8 mph - N/A   Clear
1:55 AM 35.1 °F 32.2 °F 26.1 °F 70% 30.30 in 10.0 mi SSE 3.5 mph - N/A   Clear
2:15 AM 33.8 °F 29.6 °F 27.5 °F 78% 30.29 in 10.0 mi SSE 4.6 mph - N/A   Clear
2:35 AM 34.3 °F 30.2 °F 27.5 °F 76% 30.29 in 10.0 mi SSE 4.6 mph - N/A   Clear
2:55 AM 35.1 °F 31.0 °F 27.5 °F 74% 30.30 in 10.0 mi SSE 4.6 mph - N/A   Clear
3:15 AM 35.6 °F 31.7 °F 29.1 °F 77% 30.29 in 10.0 mi South 4.6 mph - N/A   Clear
3:35 AM 36.5 °F 31.0 °F 28.6 °F 73% 30.29 in 10.0 mi SSE 6.9 mph - N/A   Clear
3:55 AM 36.5 °F 31.8 °F 28.8 °F 74% 30.28 in 10.0 mi SE 5.8 mph - N/A   Scattered Clouds
4:15 AM 37.0 °F 32.4 °F 28.8 °F 72% 30.28 in 10.0 mi SSE 5.8 mph - N/A   Mostly Cloudy
4:35 AM 37.6 °F 33.1 °F 29.1 °F 72% 30.28 in 10.0 mi SSE 5.8 mph - N/A   Overcast
4:55 AM 38.3 °F 33.2 °F 28.0 °F 67% 30.28 in 10.0 mi SE 6.9 mph - N/A   Overcast
5:15 AM 38.5 °F 33.4 °F 28.0 °F 66% 30.28 in 10.0 mi SSE 6.9 mph - N/A   Overcast
6:15 AM 38.7 °F 33.6 °F 28.9 °F 68% 30.28 in 10.0 mi SSE 6.9 mph - N/A   Overcast
6:35 AM 38.7 °F 32.4 °F 28.8 °F 68% 30.27 in 10.0 mi SE 9.2 mph - N/A   Overcast
6:55 AM 38.8 °F 33.2 °F 28.4 °F 66% 30.28 in 10.0 mi SE 8.1 mph - N/A   Overcast
7:15 AM 39.2 °F 33.6 °F 28.4 °F 65% 30.27 in 10.0 mi SE 8.1 mph - N/A   Overcast
7:35 AM 39.9 °F 35.1 °F 28.6 °F 64% 30.27 in 10.0 mi SE 6.9 mph - N/A   Overcast
7:55 AM 39.6 °F 34.7 °F 29.7 °F 68% 30.27 in 10.0 mi SE 6.9 mph - N/A   Overcast
8:15 AM 39.7 °F 34.3 °F 29.5 °F 67% 30.27 in 10.0 mi SE 8.1 mph - N/A   Overcast
8:35 AM 40.5 °F 34.6 °F 29.5 °F 65% 30.28 in 10.0 mi SE 9.2 mph - N/A   Overcast
8:55 AM 41.2 °F 35.5 °F 30.0 °F 65% 30.28 in 10.0 mi SE 9.2 mph - N/A   Overcast
9:15 AM 41.9 °F 36.3 °F 30.2 °F 63% 30.28 in 10.0 mi SE 9.2 mph - N/A   Overcast
9:35 AM 43.0 °F 37.7 °F 30.4 °F 61% 30.29 in 10.0 mi SE 9.2 mph - N/A   Overcast
9:55 AM 44.1 °F 38.1 °F 30.4 °F 59% 30.29 in 10.0 mi SE 11.5 mph - N/A   Overcast
10:35 AM 45.9 °F 39.4 °F 30.7 °F 56% 30.28 in 10.0 mi SE 15.0 mph - N/A   Mostly Cloudy
10:55 AM 47.3 °F - 30.0 °F 51% 30.28 in 10.0 mi SE 17.3 mph 21.9 mph N/A   Mostly Cloudy
11:15 AM 47.3 °F - 30.4 °F 52% 30.28 in 10.0 mi SSE 12.7 mph - N/A   Mostly Cloudy
11:35 AM 48.4 °F - 30.2 °F 49% 30.27 in 10.0 mi SSE 16.1 mph - N/A   Mostly Cloudy
11:55 AM 48.7 °F - 29.8 °F 48% 30.27 in 10.0 mi SSE 18.4 mph 21.9 mph N/A   Overcast
12:15 PM 49.8 °F - 30.2 °F 47% 30.27 in 10.0 mi SSE 17.3 mph 23.0 mph N/A   Scattered Clouds
12:35 PM 50.5 °F - 29.8 °F 45% 30.26 in 7.0 mi SSE 17.3 mph 23.0 mph N/A   Clear
12:55 PM 50.9 °F - 30.0 °F 45% 30.25 in 3.0 mi SSE 16.1 mph - N/A   Haze
1:15 PM 52.0 °F - 29.8 °F 43% 30.24 in 4.0 mi SSE 17.3 mph 23.0 mph N/A   Haze
1:35 PM 52.7 °F - 29.7 °F 41% 30.23 in 10.0 mi SE 18.4 mph 21.9 mph N/A   Scattered Clouds
1:55 PM 53.4 °F - 29.1 °F 39% 30.22 in 10.0 mi SSE 16.1 mph 21.9 mph N/A   Clear
2:15 PM 53.6 °F - 29.1 °F 39% 30.21 in 10.0 mi SE 13.8 mph 21.9 mph N/A   Clear
2:35 PM 54.1 °F - 29.1 °F 38% 30.20 in 10.0 mi SE 12.7 mph 23.0 mph N/A   Clear
2:55 PM 54.1 °F - 27.1 °F 35% 30.19 in 10.0 mi SE 12.7 mph 21.9 mph N/A   Clear
3:15 PM 54.7 °F - 26.8 °F 34% 30.19 in 10.0 mi SSE 13.8 mph 19.6 mph N/A   Clear
3:35 PM 54.5 °F - 26.4 °F 34% 30.18 in 10.0 mi SE 16.1 mph - N/A   Clear
3:55 PM 54.0 °F - 25.7 °F 34% 30.17 in 10.0 mi SE 18.4 mph 23.0 mph N/A   Clear
4:15 PM 54.3 °F - 26.1 °F 34% 30.17 in 10.0 mi SE 17.3 mph - N/A   Clear
4:35 PM 53.6 °F - 25.3 °F 34% 30.16 in 10.0 mi SE 17.3 mph - N/A   Clear
4:55 PM 53.1 °F - 24.8 °F 33% 30.17 in 10.0 mi SE 15.0 mph - N/A   Clear
5:15 PM 52.3 °F - 25.3 °F 35% 30.17 in 10.0 mi SE 12.7 mph 17.3 mph N/A   Clear
5:35 PM 51.3 °F - 29.1 °F 43% 30.17 in 10.0 mi SE 9.2 mph - N/A   Clear
5:55 PM 50.0 °F - 29.3 °F 45% 30.18 in 10.0 mi ESE 9.2 mph - N/A   Clear
6:15 PM 47.8 °F - 30.0 °F 50% 30.19 in 10.0 mi ESE 8.1 mph - N/A   Clear
6:35 PM 45.7 °F 42.0 °F 30.2 °F 55% 30.19 in 10.0 mi ESE 6.9 mph - N/A   Clear
6:55 PM 44.8 °F 39.9 °F 30.6 °F 57% 30.19 in 10.0 mi ESE 9.2 mph - N/A   Clear
7:15 PM 43.0 °F 37.7 °F 30.9 °F 62% 30.20 in 10.0 mi East 9.2 mph - N/A   Clear
7:35 PM 41.9 °F 36.9 °F 30.7 °F 65% 30.20 in 7.0 mi ESE 8.1 mph - N/A   Clear
10:35 PM 37.4 °F 32.8 °F 29.1 °F 72% 30.19 in 7.0 mi ESE 5.8 mph - N/A   Clear
10:55 PM 36.1 °F 32.3 °F 29.3 °F 76% 30.19 in 10.0 mi East 4.6 mph - N/A   Clear
11:15 PM 35.6 °F 30.7 °F 29.1 °F 77% 30.18 in 10.0 mi ESE 5.8 mph - N/A   Clear
11:35 PM 36.7 °F 32.0 °F 28.9 °F 74% 30.17 in 10.0 mi ESE 5.8 mph - N/A   Clear
11:55 PM 34.5 °F - 28.0 °F 77% 30.17 in 10.0 mi Calm Calm - N/A   Clear